GEFSNGP_prec_meanprecacc_234.txt.gz
Total_Precipitation_Accumulation
0.33 0.31 0.39 0.59 0.69 0.61 0.65 0.76 1.02 0.91 0.79 0.75 0.68 0.70 0.73 0.79 0.82 0.84 0.88 0.89 0.82 0.80 0.81 0.87 0.86 0.81 0.88 0.98 1.06 1.17 1.22 1.16 1.08 0.97 0.84 0.78 0.82 0.81 0.85 0.89 0.88 0.90 0.94 1.04
0.17 0.16 0.25 0.50 0.60 0.60 0.59 0.59 0.62 0.56 0.55 0.45 0.43 0.49 0.54 0.60 0.58 0.60 0.65 0.65 0.61 0.57 0.56 0.61 0.55 0.57 0.61 0.71 0.87 1.05 1.13 1.02 0.90 0.84 0.82 0.76 0.73 0.70 0.71 0.74 0.75 0.77 0.82 0.98
0.25 0.18 0.28 0.51 0.51 0.54 0.41 0.29 0.29 0.36 0.37 0.29 0.30 0.39 0.44 0.52 0.52 0.48 0.51 0.54 0.55 0.53 0.49 0.51 0.47 0.49 0.57 0.65 0.78 0.86 0.89 0.83 0.74 0.71 0.68 0.62 0.60 0.61 0.65 0.67 0.68 0.70 0.72 0.86
0.38 0.36 0.57 0.69 0.53 0.46 0.39 0.24 0.17 0.20 0.22 0.22 0.25 0.33 0.35 0.40 0.46 0.43 0.40 0.44 0.49 0.51 0.49 0.50 0.54 0.57 0.67 0.73 0.73 0.75 0.79 0.78 0.72 0.65 0.60 0.55 0.51 0.53 0.64 0.66 0.63 0.64 0.66 0.68
0.49 0.51 0.55 0.52 0.36 0.35 0.44 0.42 0.20 0.16 0.17 0.17 0.20 0.26 0.26 0.28 0.32 0.32 0.28 0.25 0.28 0.32 0.34 0.40 0.44 0.49 0.51 0.53 0.54 0.55 0.58 0.64 0.60 0.51 0.53 0.56 0.53 0.57 0.62 0.63 0.66 0.64 0.65 0.66
0.55 0.58 0.61 0.44 0.21 0.18 0.34 0.57 0.26 0.13 0.11 0.10 0.13 0.21 0.18 0.16 0.17 0.17 0.17 0.16 0.15 0.16 0.17 0.21 0.26 0.39 0.44 0.41 0.35 0.34 0.37 0.43 0.45 0.41 0.44 0.51 0.60 0.66 0.63 0.60 0.64 0.65 0.61 0.58
0.64 0.75 0.80 0.54 0.27 0.22 0.47 0.58 0.26 0.12 0.08 0.08 0.09 0.10 0.10 0.11 0.12 0.11 0.12 0.14 0.15 0.14 0.15 0.18 0.24 0.28 0.31 0.37 0.33 0.31 0.32 0.34 0.36 0.35 0.37 0.46 0.51 0.50 0.50 0.53 0.56 0.57 0.58 0.56
0.81 1.01 1.12 0.70 0.47 0.46 0.43 0.28 0.17 0.11 0.09 0.09 0.10 0.09 0.09 0.10 0.10 0.09 0.09 0.11 0.12 0.13 0.16 0.21 0.22 0.21 0.22 0.25 0.26 0.28 0.28 0.31 0.31 0.28 0.27 0.30 0.36 0.40 0.43 0.44 0.46 0.45 0.46 0.46
0.86 0.88 0.77 0.55 0.46 0.37 0.30 0.23 0.14 0.13 0.12 0.10 0.10 0.08 0.08 0.08 0.09 0.09 0.08 0.09 0.11 0.16 0.20 0.23 0.22 0.19 0.20 0.21 0.24 0.29 0.29 0.29 0.29 0.27 0.26 0.27 0.32 0.35 0.39 0.43 0.45 0.43 0.40 0.40
0.40 0.40 0.37 0.31 0.27 0.24 0.21 0.19 0.14 0.13 0.13 0.14 0.13 0.12 0.11 0.10 0.10 0.11 0.10 0.10 0.12 0.17 0.20 0.21 0.21 0.22 0.23 0.22 0.22 0.25 0.26 0.26 0.26 0.27 0.28 0.27 0.30 0.35 0.41 0.41 0.38 0.37 0.38 0.40
0.23 0.20 0.20 0.20 0.19 0.19 0.19 0.16 0.12 0.11 0.12 0.15 0.15 0.12 0.11 0.11 0.14 0.15 0.13 0.11 0.13 0.15 0.19 0.20 0.21 0.23 0.24 0.23 0.21 0.22 0.23 0.22 0.22 0.23 0.26 0.26 0.24 0.26 0.33 0.36 0.34 0.36 0.37 0.41
0.19 0.12 0.15 0.18 0.15 0.15 0.17 0.14 0.13 0.13 0.14 0.14 0.11 0.11 0.11 0.11 0.16 0.18 0.14 0.13 0.14 0.14 0.17 0.18 0.19 0.23 0.25 0.28 0.27 0.24 0.23 0.22 0.23 0.23 0.24 0.24 0.23 0.24 0.27 0.27 0.31 0.32 0.29 0.29
0.13 0.09 0.10 0.14 0.13 0.11 0.12 0.11 0.12 0.13 0.14 0.11 0.10 0.12 0.11 0.11 0.15 0.17 0.17 0.18 0.19 0.17 0.18 0.18 0.19 0.20 0.22 0.28 0.28 0.28 0.27 0.26 0.24 0.24 0.22 0.21 0.24 0.26 0.28 0.26 0.22 0.23 0.22 0.21
0.08 0.09 0.12 0.14 0.14 0.11 0.10 0.10 0.14 0.15 0.13 0.12 0.12 0.12 0.11 0.12 0.14 0.13 0.16 0.20 0.21 0.19 0.20 0.22 0.21 0.21 0.26 0.30 0.30 0.32 0.34 0.35 0.29 0.25 0.25 0.25 0.26 0.30 0.35 0.37 0.32 0.24 0.22 0.22
0.10 0.11 0.15 0.15 0.14 0.12 0.10 0.11 0.13 0.13 0.13 0.13 0.11 0.11 0.11 0.14 0.14 0.15 0.15 0.16 0.16 0.17 0.17 0.20 0.20 0.21 0.27 0.28 0.28 0.30 0.34 0.37 0.37 0.37 0.33 0.31 0.32 0.35 0.38 0.37 0.30 0.26 0.25 0.23
0.14 0.12 0.12 0.12 0.13 0.12 0.10 0.10 0.11 0.11 0.12 0.11 0.10 0.11 0.12 0.15 0.16 0.19 0.17 0.13 0.13 0.13 0.13 0.16 0.19 0.20 0.23 0.22 0.21 0.23 0.26 0.32 0.37 0.39 0.39 0.36 0.36 0.37 0.38 0.36 0.30 0.27 0.26 0.25
0.14 0.16 0.16 0.15 0.14 0.13 0.13 0.12 0.11 0.10 0.10 0.09 0.10 0.13 0.14 0.14 0.13 0.17 0.19 0.17 0.16 0.15 0.14 0.15 0.19 0.19 0.19 0.18 0.18 0.19 0.20 0.22 0.27 0.31 0.34 0.33 0.32 0.32 0.37 0.40 0.35 0.31 0.28 0.28
0.12 0.15 0.17 0.17 0.16 0.16 0.16 0.16 0.14 0.11 0.10 0.08 0.08 0.12 0.14 0.14 0.15 0.17 0.19 0.20 0.19 0.17 0.15 0.17 0.17 0.16 0.17 0.19 0.19 0.19 0.18 0.19 0.20 0.23 0.28 0.30 0.29 0.28 0.31 0.37 0.37 0.35 0.34 0.33
0.11 0.13 0.14 0.14 0.12 0.13 0.15 0.16 0.16 0.16 0.15 0.12 0.09 0.11 0.14 0.16 0.17 0.18 0.17 0.18 0.21 0.23 0.24 0.23 0.23 0.20 0.19 0.21 0.21 0.17 0.16 0.16 0.18 0.21 0.24 0.27 0.28 0.27 0.28 0.30 0.33 0.33 0.32 0.33
0.15 0.18 0.19 0.16 0.13 0.11 0.12 0.15 0.16 0.17 0.19 0.18 0.15 0.14 0.15 0.15 0.15 0.15 0.14 0.14 0.18 0.22 0.25 0.29 0.28 0.25 0.24 0.25 0.25 0.21 0.20 0.21 0.23 0.25 0.25 0.24 0.24 0.26 0.27 0.28 0.31 0.32 0.34 0.35
0.19 0.25 0.22 0.19 0.14 0.10 0.10 0.11 0.13 0.15 0.17 0.15 0.16 0.18 0.20 0.18 0.16 0.16 0.15 0.15 0.16 0.18 0.20 0.24 0.27 0.30 0.30 0.30 0.31 0.26 0.24 0.23 0.23 0.25 0.26 0.25 0.25 0.25 0.26 0.28 0.30 0.34 0.36 0.37
0.22 0.22 0.20 0.20 0.16 0.12 0.10 0.10 0.11 0.12 0.12 0.12 0.13 0.15 0.18 0.18 0.17 0.16 0.16 0.19 0.21 0.21 0.18 0.17 0.20 0.28 0.35 0.35 0.28 0.26 0.26 0.25 0.25 0.24 0.25 0.25 0.27 0.28 0.29 0.32 0.32 0.34 0.35 0.37
0.20 0.20 0.23 0.23 0.20 0.16 0.12 0.10 0.11 0.11 0.12 0.12 0.12 0.13 0.14 0.15 0.16 0.18 0.18 0.17 0.19 0.22 0.19 0.17 0.21 0.26 0.32 0.29 0.28 0.27 0.25 0.24 0.24 0.24 0.26 0.28 0.29 0.31 0.33 0.34 0.34 0.35 0.38 0.42
0.17 0.19 0.24 0.25 0.23 0.20 0.17 0.14 0.14 0.14 0.15 0.15 0.15 0.16 0.16 0.18 0.20 0.21 0.21 0.21 0.24 0.25 0.21 0.23 0.28 0.33 0.34 0.24 0.24 0.29 0.31 0.31 0.29 0.28 0.29 0.30 0.31 0.33 0.35 0.37 0.38 0.39 0.44 0.49
0.17 0.17 0.21 0.26 0.26 0.23 0.20 0.18 0.17 0.17 0.17 0.17 0.18 0.19 0.20 0.21 0.24 0.25 0.24 0.25 0.29 0.32 0.30 0.32 0.35 0.37 0.35 0.32 0.30 0.32 0.35 0.37 0.40 0.40 0.37 0.37 0.38 0.39 0.40 0.42 0.44 0.45 0.47 0.50
0.18 0.16 0.19 0.24 0.25 0.23 0.20 0.19 0.20 0.20 0.21 0.20 0.20 0.23 0.24 0.26 0.29 0.31 0.33 0.32 0.34 0.37 0.36 0.34 0.34 0.36 0.36 0.40 0.44 0.44 0.44 0.44 0.43 0.41 0.39 0.40 0.42 0.42 0.42 0.45 0.48 0.51 0.53 0.53
0.19 0.18 0.19 0.22 0.23 0.21 0.20 0.21 0.23 0.24 0.26 0.26 0.26 0.26 0.26 0.27 0.32 0.35 0.36 0.36 0.36 0.37 0.39 0.40 0.40 0.39 0.39 0.43 0.48 0.52 0.52 0.50 0.48 0.47 0.45 0.46 0.47 0.48 0.47 0.47 0.51 0.55 0.58 0.59

GEFSNGP_prec_meanprecacc_240.txt.gz
Total_Precipitation_Accumulation
0.33 0.32 0.40 0.60 0.71 0.61 0.65 0.76 1.02 0.92 0.80 0.79 0.75 0.75 0.76 0.81 0.84 0.85 0.90 0.90 0.83 0.81 0.82 0.88 0.88 0.83 0.90 1.00 1.08 1.19 1.25 1.21 1.15 1.03 0.89 0.82 0.85 0.84 0.88 0.94 0.92 0.96 1.01 1.11
0.17 0.16 0.26 0.51 0.61 0.61 0.59 0.59 0.63 0.57 0.56 0.46 0.44 0.50 0.55 0.62 0.60 0.62 0.67 0.67 0.63 0.59 0.58 0.63 0.56 0.58 0.62 0.73 0.89 1.08 1.15 1.07 0.96 0.89 0.87 0.79 0.76 0.74 0.76 0.80 0.82 0.84 0.88 1.04
0.25 0.19 0.28 0.51 0.52 0.55 0.42 0.29 0.29 0.37 0.38 0.30 0.31 0.40 0.46 0.54 0.55 0.50 0.53 0.55 0.57 0.55 0.50 0.52 0.48 0.50 0.58 0.66 0.80 0.90 0.92 0.87 0.79 0.75 0.73 0.66 0.64 0.67 0.72 0.74 0.76 0.77 0.77 0.92
0.38 0.36 0.58 0.69 0.54 0.47 0.39 0.24 0.17 0.20 0.24 0.25 0.28 0.35 0.37 0.43 0.51 0.46 0.42 0.45 0.50 0.52 0.49 0.51 0.55 0.58 0.68 0.75 0.75 0.78 0.82 0.81 0.76 0.70 0.65 0.60 0.56 0.59 0.70 0.73 0.70 0.70 0.71 0.73
0.50 0.51 0.55 0.52 0.37 0.35 0.44 0.42 0.20 0.16 0.18 0.18 0.21 0.28 0.29 0.31 0.36 0.36 0.31 0.28 0.29 0.32 0.34 0.40 0.44 0.50 0.52 0.54 0.56 0.57 0.61 0.68 0.64 0.56 0.58 0.61 0.58 0.63 0.67 0.67 0.69 0.67 0.69 0.69
0.56 0.58 0.62 0.44 0.21 0.18 0.34 0.57 0.26 0.13 0.12 0.11 0.15 0.23 0.22 0.18 0.19 0.20 0.20 0.18 0.16 0.16 0.19 0.22 0.27 0.39 0.45 0.42 0.36 0.36 0.39 0.45 0.48 0.45 0.48 0.54 0.63 0.69 0.67 0.63 0.68 0.69 0.65 0.62
0.64 0.75 0.80 0.54 0.27 0.22 0.48 0.59 0.26 0.12 0.09 0.10 0.11 0.12 0.13 0.13 0.14 0.13 0.13 0.16 0.16 0.15 0.15 0.19 0.24 0.29 0.32 0.38 0.34 0.32 0.34 0.35 0.37 0.37 0.40 0.48 0.53 0.51 0.52 0.55 0.60 0.60 0.61 0.59
0.81 1.02 1.12 0.70 0.47 0.47 0.44 0.28 0.18 0.12 0.10 0.11 0.12 0.10 0.10 0.12 0.12 0.11 0.10 0.12 0.13 0.14 0.16 0.21 0.22 0.22 0.24 0.26 0.27 0.29 0.30 0.32 0.32 0.29 0.30 0.32 0.37 0.42 0.44 0.46 0.48 0.47 0.48 0.48
0.87 0.88 0.77 0.55 0.47 0.38 0.30 0.25 0.17 0.16 0.14 0.12 0.11 0.09 0.10 0.10 0.10 0.10 0.09 0.10 0.12 0.17 0.20 0.23 0.23 0.21 0.21 0.22 0.25 0.30 0.30 0.30 0.30 0.29 0.28 0.30 0.33 0.36 0.41 0.45 0.48 0.45 0.42 0.42
0.40 0.41 0.37 0.31 0.27 0.25 0.22 0.21 0.16 0.14 0.14 0.16 0.15 0.13 0.12 0.11 0.12 0.12 0.11 0.11 0.13 0.18 0.20 0.23 0.23 0.23 0.24 0.24 0.24 0.26 0.26 0.27 0.27 0.28 0.30 0.30 0.33 0.38 0.44 0.44 0.40 0.38 0.40 0.42
0.24 0.20 0.21 0.20 0.20 0.20 0.19 0.16 0.13 0.12 0.13 0.17 0.17 0.14 0.12 0.13 0.16 0.16 0.14 0.13 0.14 0.16 0.21 0.22 0.23 0.24 0.26 0.25 0.23 0.23 0.24 0.23 0.23 0.26 0.28 0.29 0.27 0.29 0.36 0.38 0.36 0.38 0.39 0.43
0.20 0.13 0.15 0.18 0.16 0.15 0.17 0.15 0.13 0.14 0.16 0.15 0.13 0.12 0.13 0.13 0.18 0.19 0.16 0.14 0.15 0.16 0.19 0.20 0.21 0.25 0.27 0.30 0.28 0.25 0.24 0.23 0.24 0.25 0.27 0.27 0.26 0.26 0.29 0.30 0.34 0.34 0.32 0.32
0.14 0.10 0.10 0.14 0.13 0.12 0.12 0.11 0.12 0.14 0.15 0.13 0.11 0.13 0.12 0.12 0.17 0.20 0.19 0.20 0.21 0.20 0.19 0.19 0.20 0.22 0.24 0.30 0.30 0.30 0.28 0.26 0.26 0.26 0.25 0.24 0.26 0.29 0.30 0.28 0.25 0.25 0.26 0.25
0.08 0.10 0.13 0.14 0.14 0.11 0.11 0.11 0.15 0.16 0.14 0.13 0.13 0.12 0.11 0.13 0.16 0.16 0.18 0.23 0.23 0.21 0.22 0.23 0.22 0.23 0.28 0.32 0.33 0.35 0.36 0.37 0.31 0.27 0.27 0.27 0.28 0.33 0.38 0.39 0.34 0.26 0.24 0.25
0.10 0.12 0.16 0.16 0.15 0.12 0.11 0.11 0.14 0.13 0.13 0.14 0.12 0.11 0.12 0.15 0.17 0.18 0.18 0.18 0.19 0.19 0.18 0.21 0.22 0.22 0.28 0.30 0.32 0.33 0.37 0.39 0.38 0.38 0.35 0.33 0.34 0.38 0.41 0.39 0.32 0.28 0.27 0.26
0.15 0.12 0.13 0.13 0.13 0.12 0.10 0.11 0.12 0.11 0.13 0.13 0.12 0.13 0.15 0.18 0.20 0.23 0.20 0.16 0.14 0.14 0.14 0.17 0.20 0.22 0.25 0.25 0.25 0.26 0.27 0.34 0.38 0.41 0.41 0.37 0.38 0.40 0.40 0.38 0.31 0.29 0.28 0.26
0.14 0.17 0.17 0.15 0.14 0.14 0.14 0.14 0.13 0.12 0.11 0.10 0.13 0.17 0.19 0.19 0.18 0.22 0.22 0.19 0.17 0.15 0.14 0.16 0.19 0.20 0.21 0.20 0.20 0.21 0.22 0.24 0.29 0.34 0.36 0.36 0.35 0.35 0.39 0.41 0.37 0.33 0.31 0.30
0.12 0.15 0.17 0.17 0.16 0.16 0.16 0.17 0.16 0.14 0.12 0.10 0.12 0.16 0.21 0.23 0.23 0.23 0.24 0.23 0.20 0.18 0.16 0.18 0.19 0.18 0.18 0.20 0.20 0.21 0.21 0.22 0.22 0.26 0.30 0.32 0.32 0.31 0.34 0.39 0.40 0.37 0.37 0.36
0.11 0.13 0.14 0.14 0.12 0.13 0.15 0.16 0.17 0.18 0.18 0.14 0.11 0.13 0.19 0.26 0.28 0.26 0.23 0.24 0.25 0.26 0.25 0.24 0.24 0.21 0.19 0.22 0.22 0.19 0.18 0.19 0.21 0.24 0.27 0.29 0.30 0.29 0.30 0.33 0.35 0.35 0.34 0.35
0.15 0.18 0.19 0.16 0.13 0.11 0.13 0.15 0.16 0.18 0.19 0.19 0.16 0.15 0.19 0.24 0.26 0.22 0.18 0.19 0.25 0.31 0.31 0.31 0.29 0.26 0.25 0.25 0.26 0.22 0.21 0.23 0.25 0.27 0.27 0.26 0.26 0.28 0.29 0.30 0.32 0.34 0.35 0.37
0.20 0.25 0.23 0.19 0.15 0.11 0.10 0.12 0.13 0.15 0.18 0.17 0.18 0.20 0.24 0.27 0.26 0.23 0.19 0.18 0.21 0.26 0.28 0.29 0.30 0.31 0.31 0.32 0.32 0.27 0.26 0.25 0.26 0.27 0.28 0.28 0.27 0.27 0.28 0.29 0.31 0.35 0.38 0.40
0.24 0.23 0.21 0.21 0.18 0.14 0.12 0.12 0.13 0.14 0.15 0.15 0.16 0.19 0.23 0.25 0.26 0.25 0.21 0.21 0.22 0.24 0.22 0.21 0.24 0.31 0.38 0.38 0.30 0.28 0.28 0.27 0.28 0.27 0.27 0.28 0.30 0.31 0.31 0.34 0.35 0.36 0.37 0.38
0.23 0.22 0.25 0.25 0.22 0.19 0.16 0.14 0.15 0.15 0.16 0.16 0.16 0.17 0.19 0.20 0.24 0.29 0.24 0.20 0.21 0.24 0.20 0.19 0.23 0.30 0.36 0.33 0.30 0.29 0.28 0.27 0.26 0.26 0.28 0.30 0.32 0.34 0.35 0.36 0.36 0.37 0.40 0.43
0.19 0.21 0.26 0.27 0.25 0.23 0.21 0.18 0.19 0.19 0.20 0.20 0.19 0.19 0.19 0.22 0.25 0.30 0.27 0.24 0.26 0.27 0.22 0.24 0.29 0.35 0.37 0.27 0.27 0.32 0.34 0.33 0.32 0.31 0.32 0.33 0.34 0.36 0.38 0.39 0.40 0.41 0.45 0.50
0.18 0.18 0.22 0.27 0.27 0.24 0.22 0.20 0.20 0.21 0.21 0.21 0.21 0.21 0.21 0.24 0.28 0.32 0.31 0.27 0.31 0.33 0.31 0.33 0.36 0.39 0.37 0.33 0.31 0.33 0.36 0.39 0.43 0.44 0.40 0.40 0.40 0.41 0.43 0.45 0.47 0.47 0.48 0.51
0.18 0.17 0.19 0.24 0.26 0.24 0.21 0.20 0.21 0.23 0.23 0.23 0.22 0.24 0.26 0.28 0.31 0.36 0.40 0.38 0.36 0.39 0.37 0.35 0.36 0.38 0.38 0.42 0.45 0.46 0.46 0.45 0.45 0.43 0.42 0.43 0.44 0.44 0.45 0.47 0.50 0.53 0.55 0.54
0.19 0.18 0.19 0.22 0.23 0.21 0.21 0.22 0.25 0.26 0.28 0.28 0.28 0.28 0.27 0.29 0.34 0.38 0.43 0.43 0.40 0.39 0.40 0.41 0.41 0.40 0.41 0.45 0.49 0.53 0.53 0.51 0.50 0.49 0.47 0.49 0.50 0.51 0.50 0.50 0.53 0.57 0.60 0.61

GEFSNGP_prec_meanprecacc_246.txt.gz
Total_Precipitation_Accumulation
0.33 0.32 0.40 0.61 0.71 0.62 0.65 0.76 1.02 0.92 0.80 0.79 0.76 0.79 0.79 0.83 0.85 0.86 0.92 0.91 0.85 0.82 0.83 0.89 0.89 0.84 0.91 1.01 1.09 1.21 1.27 1.23 1.18 1.07 0.93 0.86 0.88 0.87 0.91 0.97 0.96 0.99 1.04 1.13
0.17 0.16 0.26 0.51 0.61 0.61 0.60 0.60 0.63 0.57 0.56 0.47 0.46 0.51 0.56 0.62 0.61 0.63 0.69 0.68 0.65 0.61 0.60 0.64 0.57 0.59 0.63 0.74 0.90 1.09 1.17 1.10 0.99 0.92 0.91 0.83 0.79 0.77 0.80 0.83 0.86 0.88 0.92 1.07
0.25 0.19 0.28 0.51 0.52 0.55 0.42 0.30 0.29 0.37 0.38 0.32 0.32 0.41 0.46 0.55 0.57 0.53 0.56 0.57 0.58 0.56 0.51 0.54 0.49 0.51 0.59 0.67 0.81 0.91 0.94 0.89 0.81 0.79 0.77 0.70 0.68 0.70 0.75 0.77 0.81 0.83 0.81 0.95
0.39 0.37 0.58 0.69 0.54 0.47 0.39 0.24 0.17 0.20 0.24 0.25 0.28 0.35 0.38 0.44 0.53 0.49 0.45 0.47 0.52 0.53 0.50 0.52 0.56 0.59 0.69 0.75 0.76 0.79 0.84 0.85 0.79 0.73 0.68 0.64 0.61 0.63 0.74 0.76 0.74 0.76 0.77 0.76
0.50 0.52 0.55 0.52 0.37 0.35 0.44 0.42 0.20 0.16 0.18 0.19 0.22 0.29 0.30 0.32 0.37 0.37 0.32 0.29 0.30 0.33 0.35 0.41 0.45 0.50 0.52 0.55 0.56 0.58 0.63 0.69 0.66 0.59 0.61 0.65 0.62 0.67 0.71 0.70 0.72 0.70 0.73 0.74
0.57 0.58 0.62 0.44 0.21 0.18 0.34 0.58 0.26 0.13 0.12 0.11 0.15 0.26 0.26 0.21 0.22 0.22 0.21 0.19 0.17 0.18 0.20 0.23 0.28 0.40 0.45 0.43 0.37 0.37 0.40 0.46 0.49 0.47 0.50 0.57 0.65 0.72 0.70 0.66 0.71 0.71 0.68 0.65
0.65 0.75 0.80 0.54 0.27 0.22 0.48 0.59 0.26 0.12 0.09 0.10 0.12 0.15 0.17 0.16 0.17 0.15 0.15 0.16 0.17 0.16 0.16 0.20 0.25 0.29 0.33 0.38 0.34 0.33 0.34 0.36 0.38 0.39 0.42 0.50 0.55 0.54 0.54 0.57 0.63 0.65 0.67 0.62
0.81 1.02 1.12 0.70 0.47 0.47 0.44 0.28 0.18 0.12 0.10 0.11 0.13 0.14 0.13 0.14 0.15 0.11 0.11 0.13 0.13 0.14 0.17 0.22 0.23 0.23 0.24 0.27 0.27 0.30 0.30 0.33 0.33 0.31 0.31 0.33 0.38 0.42 0.44 0.47 0.49 0.50 0.51 0.50
0.87 0.89 0.77 0.55 0.47 0.38 0.31 0.25 0.17 0.16 0.14 0.13 0.13 0.13 0.13 0.12 0.12 0.11 0.10 0.10 0.12 0.17 0.21 0.24 0.24 0.21 0.21 0.22 0.25 0.30 0.31 0.31 0.31 0.30 0.29 0.30 0.34 0.37 0.41 0.45 0.49 0.47 0.43 0.42
0.41 0.41 0.37 0.31 0.28 0.25 0.22 0.21 0.17 0.14 0.15 0.17 0.16 0.15 0.14 0.13 0.13 0.13 0.11 0.12 0.13 0.18 0.21 0.24 0.23 0.24 0.25 0.24 0.24 0.26 0.27 0.28 0.29 0.30 0.31 0.31 0.34 0.38 0.44 0.45 0.41 0.40 0.41 0.43
0.24 0.20 0.21 0.20 0.20 0.20 0.20 0.16 0.13 0.12 0.13 0.17 0.18 0.16 0.14 0.15 0.17 0.16 0.14 0.13 0.14 0.17 0.21 0.23 0.23 0.25 0.27 0.26 0.24 0.24 0.26 0.26 0.26 0.28 0.30 0.31 0.28 0.30 0.36 0.39 0.37 0.39 0.40 0.44
0.20 0.13 0.15 0.18 0.16 0.16 0.17 0.15 0.13 0.14 0.16 0.16 0.14 0.13 0.14 0.14 0.19 0.20 0.16 0.15 0.16 0.17 0.20 0.21 0.21 0.26 0.28 0.31 0.29 0.27 0.25 0.25 0.26 0.26 0.29 0.29 0.27 0.28 0.30 0.31 0.35 0.35 0.33 0.34
0.14 0.10 0.11 0.14 0.13 0.12 0.13 0.11 0.13 0.14 0.15 0.14 0.12 0.14 0.13 0.13 0.18 0.21 0.21 0.21 0.22 0.21 0.21 0.20 0.21 0.23 0.25 0.31 0.31 0.32 0.31 0.29 0.28 0.27 0.26 0.26 0.28 0.30 0.32 0.29 0.25 0.26 0.27 0.26
0.09 0.10 0.13 0.15 0.14 0.11 0.11 0.11 0.15 0.16 0.15 0.14 0.13 0.13 0.12 0.14 0.17 0.17 0.20 0.24 0.25 0.23 0.23 0.24 0.23 0.24 0.29 0.33 0.35 0.37 0.40 0.40 0.34 0.29 0.28 0.28 0.30 0.35 0.39 0.41 0.35 0.27 0.25 0.26
0.10 0.12 0.16 0.16 0.15 0.13 0.11 0.12 0.14 0.13 0.14 0.14 0.12 0.13 0.14 0.18 0.19 0.20 0.19 0.19 0.20 0.19 0.19 0.22 0.23 0.23 0.30 0.31 0.33 0.35 0.40 0.42 0.40 0.39 0.35 0.33 0.35 0.41 0.43 0.40 0.33 0.30 0.28 0.27
0.15 0.12 0.13 0.13 0.14 0.13 0.11 0.12 0.12 0.12 0.13 0.13 0.13 0.16 0.19 0.21 0.23 0.25 0.21 0.17 0.15 0.14 0.14 0.18 0.21 0.23 0.25 0.26 0.27 0.28 0.30 0.36 0.39 0.41 0.41 0.38 0.39 0.42 0.43 0.40 0.33 0.30 0.30 0.28
0.14 0.17 0.17 0.15 0.15 0.15 0.15 0.15 0.14 0.12 0.11 0.11 0.14 0.20 0.22 0.22 0.21 0.24 0.24 0.21 0.18 0.16 0.15 0.17 0.20 0.20 0.21 0.21 0.22 0.23 0.23 0.25 0.30 0.34 0.37 0.37 0.36 0.38 0.43 0.44 0.38 0.35 0.33 0.32
0.12 0.15 0.17 0.17 0.16 0.16 0.17 0.18 0.17 0.15 0.13 0.11 0.13 0.19 0.25 0.26 0.26 0.27 0.28 0.26 0.22 0.19 0.17 0.19 0.19 0.18 0.19 0.21 0.22 0.22 0.22 0.22 0.23 0.27 0.31 0.33 0.34 0.33 0.38 0.42 0.42 0.39 0.38 0.38
0.11 0.13 0.15 0.14 0.12 0.13 0.16 0.17 0.18 0.20 0.19 0.15 0.12 0.16 0.23 0.29 0.32 0.30 0.27 0.28 0.27 0.27 0.27 0.25 0.25 0.21 0.20 0.23 0.23 0.19 0.18 0.19 0.22 0.25 0.28 0.30 0.31 0.31 0.33 0.35 0.37 0.38 0.36 0.37
0.16 0.18 0.19 0.17 0.13 0.11 0.13 0.15 0.16 0.18 0.21 0.20 0.17 0.18 0.24 0.28 0.30 0.25 0.22 0.23 0.28 0.33 0.32 0.32 0.30 0.27 0.26 0.26 0.27 0.23 0.22 0.23 0.26 0.28 0.28 0.27 0.27 0.29 0.31 0.32 0.34 0.36 0.38 0.40
0.22 0.27 0.25 0.21 0.15 0.11 0.10 0.12 0.13 0.16 0.18 0.18 0.20 0.22 0.29 0.33 0.31 0.27 0.23 0.22 0.25 0.29 0.30 0.31 0.31 0.32 0.32 0.33 0.34 0.29 0.27 0.26 0.27 0.29 0.30 0.29 0.28 0.28 0.29 0.32 0.34 0.38 0.41 0.42
0.26 0.25 0.23 0.23 0.19 0.14 0.13 0.12 0.14 0.15 0.15 0.16 0.18 0.21 0.27 0.33 0.33 0.30 0.25 0.26 0.29 0.31 0.27 0.25 0.27 0.33 0.40 0.41 0.34 0.31 0.30 0.30 0.30 0.29 0.29 0.31 0.32 0.33 0.33 0.37 0.38 0.40 0.41 0.41
0.24 0.23 0.26 0.27 0.25 0.21 0.18 0.16 0.17 0.17 0.17 0.18 0.18 0.20 0.22 0.26 0.31 0.36 0.30 0.25 0.25 0.28 0.25 0.25 0.28 0.33 0.39 0.36 0.35 0.36 0.34 0.31 0.30 0.29 0.31 0.33 0.34 0.36 0.38 0.40 0.41 0.42 0.45 0.48
0.21 0.23 0.28 0.30 0.28 0.26 0.24 0.22 0.22 0.23 0.23 0.23 0.22 0.22 0.23 0.27 0.31 0.37 0.32 0.28 0.30 0.30 0.24 0.28 0.33 0.38 0.39 0.28 0.28 0.34 0.36 0.35 0.34 0.34 0.35 0.37 0.38 0.40 0.42 0.43 0.44 0.46 0.51 0.56
0.19 0.20 0.24 0.30 0.30 0.28 0.25 0.23 0.23 0.24 0.24 0.24 0.24 0.25 0.26 0.29 0.34 0.38 0.35 0.30 0.33 0.35 0.32 0.34 0.38 0.41 0.38 0.34 0.33 0.35 0.38 0.41 0.45 0.45 0.42 0.43 0.44 0.46 0.48 0.50 0.51 0.52 0.53 0.56
0.19 0.18 0.21 0.26 0.28 0.27 0.24 0.23 0.24 0.25 0.26 0.25 0.25 0.27 0.29 0.31 0.35 0.41 0.45 0.41 0.38 0.41 0.39 0.36 0.37 0.40 0.39 0.44 0.47 0.48 0.48 0.47 0.46 0.44 0.43 0.44 0.45 0.46 0.47 0.49 0.52 0.56 0.58 0.57
0.20 0.18 0.20 0.23 0.24 0.23 0.23 0.24 0.26 0.27 0.29 0.30 0.29 0.30 0.29 0.31 0.36 0.41 0.48 0.48 0.43 0.41 0.42 0.42 0.41 0.41 0.42 0.46 0.51 0.54 0.55 0.53 0.52 0.51 0.49 0.50 0.51 0.52 0.51 0.51 0.55 0.59 0.62 0.64

GEFSNGP_prec_meanprecacc_252.txt.gz
Total_Precipitation_Accumulation
0.33 0.32 0.40 0.61 0.71 0.62 0.66 0.76 1.02 0.92 0.80 0.79 0.76 0.79 0.79 0.84 0.86 0.87 0.92 0.92 0.86 0.83 0.84 0.90 0.89 0.85 0.93 1.03 1.10 1.21 1.28 1.24 1.19 1.09 0.97 0.91 0.93 0.90 0.94 0.99 0.98 1.02 1.06 1.14
0.17 0.17 0.26 0.51 0.61 0.62 0.60 0.60 0.63 0.57 0.56 0.47 0.46 0.51 0.56 0.63 0.61 0.64 0.69 0.70 0.66 0.62 0.60 0.64 0.58 0.59 0.63 0.74 0.91 1.10 1.17 1.11 1.00 0.94 0.94 0.87 0.82 0.80 0.82 0.85 0.88 0.90 0.94 1.09
0.25 0.19 0.28 0.51 0.52 0.55 0.42 0.30 0.30 0.37 0.38 0.32 0.33 0.41 0.46 0.55 0.57 0.53 0.57 0.59 0.60 0.58 0.53 0.55 0.51 0.52 0.60 0.68 0.82 0.91 0.95 0.90 0.83 0.81 0.79 0.73 0.70 0.72 0.77 0.79 0.83 0.84 0.82 0.96
0.39 0.37 0.59 0.69 0.54 0.47 0.39 0.24 0.18 0.21 0.24 0.25 0.28 0.35 0.38 0.44 0.53 0.50 0.46 0.49 0.53 0.55 0.52 0.53 0.57 0.60 0.69 0.76 0.76 0.80 0.86 0.86 0.81 0.75 0.71 0.67 0.63 0.65 0.77 0.79 0.76 0.78 0.77 0.77
0.51 0.52 0.56 0.53 0.37 0.35 0.45 0.42 0.20 0.16 0.18 0.19 0.22 0.29 0.31 0.32 0.38 0.37 0.32 0.29 0.30 0.34 0.36 0.42 0.46 0.51 0.53 0.55 0.57 0.59 0.64 0.71 0.68 0.60 0.63 0.67 0.63 0.68 0.72 0.72 0.73 0.72 0.75 0.75
0.58 0.59 0.62 0.44 0.21 0.19 0.34 0.58 0.26 0.13 0.12 0.12 0.17 0.29 0.27 0.21 0.23 0.22 0.21 0.19 0.18 0.19 0.20 0.23 0.29 0.40 0.46 0.44 0.39 0.38 0.40 0.46 0.50 0.48 0.51 0.58 0.66 0.73 0.71 0.67 0.72 0.72 0.69 0.67
0.66 0.77 0.80 0.54 0.27 0.22 0.48 0.59 0.26 0.13 0.09 0.11 0.15 0.18 0.18 0.17 0.18 0.15 0.15 0.18 0.18 0.17 0.17 0.20 0.25 0.30 0.33 0.38 0.35 0.33 0.35 0.37 0.38 0.39 0.43 0.51 0.56 0.55 0.55 0.58 0.64 0.67 0.68 0.63
0.83 1.04 1.13 0.70 0.47 0.47 0.44 0.28 0.18 0.12 0.10 0.13 0.16 0.16 0.15 0.15 0.15 0.12 0.12 0.15 0.16 0.15 0.17 0.22 0.23 0.23 0.24 0.27 0.28 0.30 0.31 0.33 0.34 0.31 0.32 0.34 0.39 0.43 0.45 0.47 0.50 0.51 0.52 0.50
0.89 0.90 0.77 0.55 0.47 0.38 0.31 0.25 0.17 0.16 0.15 0.15 0.16 0.15 0.14 0.13 0.13 0.11 0.10 0.12 0.15 0.19 0.22 0.25 0.25 0.22 0.22 0.23 0.26 0.30 0.31 0.32 0.32 0.30 0.30 0.31 0.34 0.37 0.42 0.46 0.50 0.48 0.44 0.43
0.42 0.42 0.38 0.31 0.28 0.25 0.22 0.21 0.17 0.14 0.16 0.19 0.18 0.17 0.15 0.13 0.14 0.13 0.12 0.13 0.15 0.20 0.23 0.25 0.24 0.25 0.25 0.25 0.24 0.26 0.27 0.29 0.29 0.31 0.32 0.32 0.35 0.39 0.45 0.45 0.42 0.40 0.41 0.44
0.25 0.22 0.22 0.21 0.20 0.20 0.20 0.16 0.13 0.12 0.14 0.19 0.19 0.17 0.15 0.15 0.17 0.17 0.15 0.14 0.15 0.18 0.23 0.24 0.25 0.26 0.28 0.26 0.24 0.24 0.26 0.26 0.26 0.29 0.32 0.32 0.30 0.32 0.37 0.40 0.37 0.39 0.41 0.45
0.21 0.14 0.16 0.19 0.16 0.16 0.17 0.15 0.13 0.14 0.17 0.17 0.15 0.14 0.15 0.15 0.19 0.21 0.17 0.16 0.17 0.18 0.22 0.22 0.23 0.27 0.29 0.32 0.30 0.27 0.26 0.26 0.27 0.28 0.30 0.30 0.29 0.29 0.31 0.31 0.35 0.36 0.33 0.34
0.14 0.10 0.11 0.14 0.13 0.12 0.13 0.11 0.13 0.14 0.16 0.15 0.13 0.14 0.14 0.13 0.19 0.22 0.22 0.22 0.23 0.22 0.22 0.21 0.22 0.24 0.26 0.32 0.32 0.33 0.31 0.30 0.28 0.28 0.28 0.28 0.29 0.31 0.32 0.29 0.26 0.26 0.27 0.27
0.09 0.10 0.13 0.15 0.14 0.11 0.11 0.11 0.15 0.16 0.15 0.14 0.14 0.13 0.13 0.14 0.18 0.18 0.21 0.25 0.26 0.24 0.24 0.25 0.24 0.24 0.29 0.34 0.36 0.38 0.41 0.41 0.35 0.30 0.29 0.29 0.31 0.36 0.40 0.41 0.35 0.27 0.26 0.27
0.10 0.12 0.16 0.17 0.15 0.13 0.11 0.12 0.14 0.13 0.14 0.14 0.13 0.13 0.15 0.18 0.20 0.21 0.20 0.20 0.20 0.20 0.20 0.23 0.24 0.25 0.31 0.32 0.34 0.36 0.42 0.43 0.41 0.40 0.37 0.34 0.36 0.42 0.45 0.41 0.34 0.31 0.29 0.28
0.15 0.12 0.13 0.13 0.14 0.13 0.11 0.12 0.13 0.12 0.13 0.14 0.13 0.17 0.19 0.23 0.24 0.27 0.23 0.18 0.16 0.16 0.15 0.19 0.22 0.24 0.27 0.27 0.27 0.29 0.31 0.37 0.41 0.43 0.43 0.39 0.40 0.43 0.45 0.42 0.34 0.31 0.30 0.29
0.15 0.17 0.17 0.15 0.15 0.15 0.15 0.15 0.14 0.12 0.12 0.11 0.15 0.21 0.23 0.23 0.22 0.25 0.26 0.22 0.19 0.17 0.16 0.18 0.21 0.21 0.22 0.22 0.23 0.24 0.24 0.26 0.31 0.35 0.37 0.37 0.37 0.38 0.43 0.44 0.40 0.36 0.34 0.33
0.13 0.16 0.17 0.17 0.16 0.17 0.17 0.18 0.17 0.15 0.13 0.11 0.13 0.21 0.26 0.27 0.28 0.28 0.30 0.27 0.23 0.19 0.18 0.19 0.19 0.19 0.19 0.21 0.23 0.24 0.23 0.23 0.24 0.27 0.31 0.34 0.34 0.33 0.38 0.43 0.43 0.41 0.41 0.40
0.12 0.14 0.15 0.15 0.13 0.13 0.16 0.17 0.18 0.20 0.19 0.16 0.13 0.18 0.26 0.32 0.35 0.32 0.30 0.30 0.28 0.29 0.28 0.26 0.26 0.22 0.21 0.24 0.25 0.21 0.19 0.20 0.22 0.26 0.28 0.31 0.32 0.31 0.33 0.36 0.38 0.39 0.39 0.40
0.17 0.19 0.20 0.18 0.14 0.12 0.13 0.16 0.17 0.19 0.21 0.21 0.18 0.19 0.26 0.32 0.34 0.29 0.26 0.26 0.30 0.35 0.35 0.35 0.32 0.28 0.27 0.28 0.29 0.24 0.23 0.24 0.26 0.29 0.29 0.28 0.28 0.30 0.32 0.33 0.35 0.37 0.39 0.42
0.24 0.29 0.28 0.23 0.17 0.13 0.12 0.12 0.14 0.16 0.19 0.19 0.20 0.23 0.30 0.37 0.35 0.31 0.27 0.26 0.29 0.32 0.33 0.34 0.34 0.34 0.34 0.35 0.36 0.30 0.28 0.27 0.28 0.30 0.31 0.30 0.29 0.29 0.30 0.33 0.35 0.40 0.43 0.44
0.27 0.27 0.25 0.25 0.21 0.16 0.15 0.14 0.15 0.15 0.16 0.17 0.18 0.22 0.28 0.36 0.37 0.34 0.29 0.31 0.33 0.36 0.31 0.29 0.30 0.37 0.44 0.44 0.35 0.32 0.32 0.31 0.31 0.30 0.31 0.32 0.33 0.34 0.35 0.38 0.40 0.42 0.43 0.44
0.26 0.25 0.28 0.29 0.27 0.23 0.20 0.19 0.20 0.19 0.19 0.21 0.21 0.22 0.24 0.29 0.35 0.40 0.33 0.28 0.30 0.34 0.31 0.31 0.34 0.39 0.43 0.39 0.37 0.37 0.35 0.33 0.32 0.32 0.34 0.36 0.37 0.38 0.40 0.42 0.43 0.45 0.49 0.52
0.22 0.25 0.29 0.32 0.31 0.29 0.28 0.27 0.28 0.28 0.27 0.26 0.26 0.27 0.27 0.30 0.35 0.40 0.36 0.31 0.34 0.35 0.30 0.33 0.39 0.43 0.44 0.33 0.33 0.38 0.40 0.39 0.38 0.38 0.40 0.42 0.42 0.44 0.46 0.47 0.48 0.50 0.56 0.60
0.20 0.21 0.25 0.31 0.32 0.30 0.28 0.28 0.29 0.31 0.30 0.28 0.28 0.29 0.30 0.33 0.38 0.42 0.39 0.33 0.36 0.39 0.37 0.40 0.43 0.46 0.43 0.39 0.38 0.39 0.42 0.45 0.49 0.49 0.46 0.47 0.49 0.52 0.55 0.58 0.60 0.62 0.63 0.63
0.19 0.18 0.21 0.27 0.29 0.28 0.26 0.25 0.27 0.29 0.30 0.29 0.28 0.30 0.32 0.35 0.39 0.45 0.49 0.44 0.41 0.44 0.42 0.40 0.41 0.44 0.43 0.47 0.50 0.51 0.51 0.50 0.49 0.47 0.45 0.47 0.48 0.49 0.51 0.54 0.57 0.62 0.66 0.65
0.20 0.19 0.20 0.23 0.25 0.24 0.24 0.25 0.28 0.30 0.32 0.32 0.32 0.33 0.32 0.34 0.38 0.43 0.50 0.50 0.45 0.43 0.44 0.44 0.44 0.44 0.45 0.48 0.52 0.56 0.56 0.54 0.53 0.52 0.51 0.52 0.53 0.54 0.53 0.53 0.58 0.62 0.67 0.69

GEFSNGP_prec_meanprecacc_258.txt.gz
Total_Precipitation_Accumulation
0.33 0.32 0.40 0.61 0.71 0.62 0.66 0.76 1.03 0.93 0.81 0.79 0.77 0.79 0.79 0.84 0.86 0.87 0.93 0.93 0.88 0.85 0.85 0.91 0.93 0.92 0.98 1.07 1.13 1.24 1.31 1.27 1.23 1.11 0.98 0.93 0.95 0.91 0.97 1.03 1.02 1.06 1.10 1.18
0.17 0.17 0.26 0.51 0.61 0.62 0.60 0.60 0.63 0.58 0.56 0.47 0.46 0.52 0.57 0.63 0.62 0.64 0.70 0.71 0.68 0.65 0.62 0.65 0.59 0.61 0.66 0.77 0.93 1.12 1.19 1.14 1.04 0.96 0.95 0.89 0.85 0.82 0.85 0.88 0.91 0.95 0.98 1.12
0.26 0.19 0.28 0.52 0.52 0.56 0.42 0.30 0.30 0.38 0.39 0.32 0.33 0.41 0.47 0.56 0.58 0.54 0.58 0.60 0.62 0.61 0.57 0.56 0.52 0.54 0.61 0.69 0.83 0.94 0.97 0.93 0.85 0.82 0.81 0.76 0.73 0.76 0.81 0.82 0.85 0.87 0.85 0.98
0.40 0.37 0.59 0.70 0.54 0.47 0.40 0.25 0.18 0.21 0.24 0.25 0.28 0.35 0.38 0.45 0.54 0.51 0.46 0.49 0.55 0.57 0.54 0.55 0.58 0.61 0.70 0.77 0.78 0.82 0.88 0.88 0.83 0.76 0.72 0.69 0.66 0.69 0.80 0.81 0.78 0.80 0.80 0.79
0.52 0.53 0.56 0.53 0.37 0.35 0.45 0.43 0.20 0.17 0.18 0.19 0.22 0.29 0.31 0.32 0.38 0.38 0.33 0.30 0.32 0.36 0.39 0.44 0.47 0.51 0.54 0.56 0.57 0.61 0.66 0.72 0.68 0.61 0.64 0.69 0.66 0.72 0.76 0.75 0.76 0.73 0.77 0.77
0.59 0.61 0.63 0.44 0.21 0.19 0.34 0.58 0.26 0.14 0.12 0.12 0.18 0.30 0.28 0.21 0.23 0.22 0.22 0.20 0.19 0.20 0.23 0.26 0.30 0.41 0.47 0.44 0.39 0.39 0.41 0.47 0.51 0.49 0.53 0.61 0.70 0.76 0.73 0.70 0.75 0.75 0.70 0.68
0.67 0.78 0.81 0.54 0.28 0.23 0.49 0.59 0.26 0.13 0.10 0.11 0.15 0.19 0.18 0.17 0.18 0.15 0.16 0.18 0.20 0.20 0.20 0.23 0.27 0.31 0.34 0.39 0.35 0.34 0.36 0.38 0.40 0.41 0.45 0.55 0.61 0.58 0.57 0.61 0.67 0.69 0.70 0.65
0.85 1.06 1.14 0.70 0.48 0.48 0.45 0.29 0.18 0.13 0.11 0.14 0.17 0.16 0.15 0.15 0.15 0.12 0.13 0.16 0.17 0.18 0.21 0.26 0.25 0.24 0.25 0.27 0.28 0.30 0.31 0.34 0.35 0.33 0.33 0.36 0.42 0.47 0.48 0.50 0.53 0.54 0.55 0.54
0.93 0.93 0.79 0.57 0.48 0.39 0.31 0.25 0.17 0.16 0.16 0.16 0.16 0.15 0.14 0.13 0.13 0.11 0.11 0.13 0.15 0.21 0.26 0.28 0.27 0.23 0.22 0.23 0.26 0.30 0.31 0.32 0.32 0.31 0.31 0.32 0.35 0.39 0.44 0.49 0.52 0.49 0.46 0.45
0.45 0.45 0.40 0.33 0.28 0.25 0.22 0.21 0.17 0.15 0.17 0.20 0.18 0.17 0.15 0.14 0.14 0.13 0.12 0.13 0.15 0.21 0.26 0.31 0.29 0.27 0.27 0.25 0.25 0.27 0.28 0.29 0.30 0.31 0.33 0.33 0.36 0.40 0.47 0.47 0.43 0.41 0.42 0.44
0.27 0.24 0.24 0.23 0.21 0.21 0.20 0.16 0.13 0.13 0.15 0.20 0.20 0.17 0.15 0.15 0.18 0.17 0.15 0.14 0.16 0.19 0.24 0.29 0.31 0.29 0.29 0.27 0.25 0.25 0.27 0.27 0.27 0.29 0.33 0.33 0.31 0.33 0.39 0.41 0.38 0.40 0.42 0.46
0.22 0.15 0.17 0.20 0.17 0.17 0.18 0.15 0.13 0.14 0.18 0.18 0.16 0.15 0.15 0.15 0.20 0.21 0.18 0.17 0.19 0.19 0.23 0.24 0.27 0.30 0.31 0.33 0.31 0.28 0.27 0.27 0.28 0.29 0.32 0.32 0.31 0.31 0.32 0.32 0.36 0.36 0.34 0.35
0.14 0.10 0.11 0.14 0.14 0.12 0.13 0.11 0.13 0.14 0.16 0.16 0.15 0.16 0.14 0.14 0.19 0.22 0.22 0.23 0.26 0.26 0.25 0.23 0.24 0.26 0.27 0.34 0.35 0.35 0.34 0.32 0.30 0.30 0.30 0.30 0.31 0.33 0.35 0.31 0.27 0.27 0.28 0.27
0.09 0.10 0.13 0.15 0.14 0.11 0.11 0.11 0.15 0.16 0.15 0.15 0.15 0.15 0.14 0.15 0.18 0.18 0.21 0.25 0.27 0.26 0.27 0.27 0.26 0.26 0.32 0.37 0.39 0.43 0.46 0.45 0.38 0.34 0.33 0.32 0.33 0.37 0.42 0.44 0.37 0.28 0.27 0.28
0.10 0.12 0.16 0.17 0.15 0.13 0.11 0.12 0.14 0.13 0.14 0.15 0.14 0.14 0.16 0.19 0.21 0.21 0.21 0.20 0.20 0.20 0.20 0.24 0.26 0.26 0.32 0.33 0.35 0.39 0.45 0.47 0.45 0.44 0.41 0.38 0.38 0.44 0.46 0.43 0.36 0.32 0.30 0.28
0.15 0.12 0.13 0.13 0.14 0.13 0.11 0.12 0.13 0.12 0.13 0.14 0.14 0.18 0.21 0.23 0.24 0.27 0.23 0.18 0.16 0.16 0.16 0.21 0.24 0.25 0.28 0.28 0.28 0.32 0.33 0.39 0.44 0.46 0.46 0.42 0.43 0.46 0.47 0.44 0.36 0.33 0.31 0.29
0.15 0.17 0.17 0.15 0.15 0.15 0.15 0.15 0.14 0.12 0.12 0.11 0.15 0.22 0.24 0.24 0.23 0.26 0.27 0.23 0.20 0.18 0.17 0.19 0.23 0.23 0.23 0.23 0.24 0.25 0.26 0.29 0.34 0.37 0.39 0.39 0.40 0.41 0.46 0.47 0.42 0.38 0.36 0.34
0.13 0.16 0.18 0.17 0.16 0.17 0.17 0.18 0.17 0.15 0.13 0.11 0.14 0.21 0.27 0.28 0.28 0.29 0.31 0.28 0.23 0.20 0.19 0.20 0.20 0.20 0.21 0.22 0.24 0.25 0.24 0.26 0.28 0.30 0.33 0.36 0.36 0.35 0.40 0.45 0.45 0.43 0.43 0.42
0.12 0.14 0.15 0.15 0.13 0.13 0.16 0.17 0.19 0.20 0.20 0.16 0.13 0.19 0.27 0.33 0.36 0.33 0.31 0.30 0.29 0.29 0.29 0.27 0.27 0.23 0.22 0.25 0.26 0.23 0.21 0.22 0.25 0.28 0.31 0.33 0.34 0.33 0.35 0.37 0.40 0.41 0.40 0.41
0.17 0.19 0.21 0.18 0.14 0.13 0.14 0.16 0.17 0.19 0.22 0.21 0.18 0.19 0.27 0.33 0.34 0.30 0.26 0.27 0.31 0.36 0.35 0.36 0.33 0.29 0.28 0.29 0.31 0.25 0.24 0.26 0.28 0.31 0.31 0.29 0.29 0.31 0.33 0.34 0.36 0.39 0.41 0.43
0.24 0.29 0.28 0.24 0.18 0.14 0.13 0.13 0.15 0.17 0.20 0.20 0.21 0.23 0.31 0.38 0.37 0.32 0.28 0.27 0.30 0.33 0.34 0.35 0.35 0.35 0.35 0.37 0.39 0.32 0.30 0.29 0.30 0.32 0.33 0.32 0.30 0.30 0.31 0.34 0.37 0.41 0.45 0.46
0.27 0.27 0.25 0.25 0.22 0.17 0.15 0.15 0.15 0.16 0.17 0.18 0.20 0.23 0.30 0.38 0.40 0.35 0.30 0.32 0.35 0.38 0.33 0.31 0.32 0.39 0.46 0.45 0.37 0.34 0.33 0.33 0.33 0.31 0.32 0.34 0.35 0.36 0.37 0.40 0.42 0.44 0.46 0.46
0.26 0.25 0.28 0.30 0.28 0.24 0.21 0.20 0.21 0.20 0.21 0.22 0.23 0.24 0.27 0.31 0.39 0.43 0.35 0.31 0.32 0.37 0.34 0.33 0.37 0.42 0.46 0.41 0.39 0.39 0.37 0.35 0.33 0.33 0.35 0.38 0.39 0.41 0.43 0.45 0.46 0.48 0.51 0.55
0.23 0.25 0.30 0.32 0.31 0.29 0.28 0.28 0.30 0.30 0.29 0.29 0.30 0.31 0.31 0.35 0.38 0.45 0.40 0.35 0.37 0.38 0.34 0.37 0.42 0.47 0.48 0.37 0.37 0.41 0.43 0.42 0.41 0.40 0.42 0.44 0.45 0.47 0.49 0.51 0.52 0.54 0.59 0.63
0.21 0.21 0.25 0.31 0.32 0.31 0.29 0.29 0.30 0.32 0.33 0.31 0.32 0.34 0.35 0.39 0.44 0.48 0.44 0.37 0.40 0.42 0.41 0.44 0.48 0.50 0.47 0.44 0.42 0.44 0.47 0.49 0.53 0.53 0.49 0.51 0.53 0.56 0.59 0.62 0.64 0.66 0.66 0.66
0.20 0.18 0.21 0.27 0.29 0.28 0.26 0.26 0.28 0.32 0.34 0.32 0.32 0.35 0.37 0.40 0.44 0.51 0.54 0.48 0.45 0.48 0.45 0.43 0.45 0.47 0.47 0.52 0.54 0.54 0.54 0.54 0.52 0.50 0.48 0.50 0.51 0.53 0.54 0.57 0.61 0.66 0.70 0.69
0.20 0.19 0.20 0.23 0.25 0.24 0.24 0.26 0.29 0.32 0.35 0.36 0.36 0.36 0.36 0.38 0.43 0.49 0.55 0.55 0.50 0.47 0.48 0.48 0.47 0.47 0.47 0.51 0.57 0.60 0.60 0.58 0.56 0.55 0.54 0.55 0.56 0.57 0.57 0.57 0.61 0.66 0.71 0.74

GEFSNGP_prec_meanprecacc_264.txt.gz
Total_Precipitation_Accumulation
0.34 0.32 0.41 0.61 0.71 0.62 0.66 0.77 1.03 0.94 0.82 0.80 0.77 0.79 0.79 0.84 0.87 0.87 0.93 0.93 0.88 0.87 0.91 1.00 1.04 1.03 1.09 1.15 1.20 1.30 1.35 1.31 1.28 1.18 1.04 0.97 0.98 0.93 0.99 1.06 1.06 1.12 1.18 1.25
0.18 0.17 0.27 0.51 0.62 0.62 0.61 0.60 0.64 0.58 0.57 0.48 0.46 0.52 0.57 0.64 0.62 0.64 0.70 0.71 0.68 0.66 0.67 0.73 0.67 0.69 0.74 0.88 1.04 1.21 1.27 1.23 1.12 1.02 0.99 0.92 0.87 0.84 0.88 0.91 0.95 1.00 1.05 1.19
0.26 0.19 0.29 0.52 0.53 0.57 0.43 0.30 0.31 0.38 0.39 0.32 0.33 0.41 0.47 0.56 0.58 0.55 0.58 0.60 0.62 0.61 0.58 0.61 0.58 0.60 0.66 0.75 0.91 1.02 1.05 1.01 0.90 0.85 0.83 0.78 0.75 0.77 0.83 0.85 0.89 0.92 0.90 1.04
0.40 0.38 0.61 0.70 0.54 0.47 0.40 0.26 0.19 0.21 0.25 0.26 0.28 0.36 0.38 0.45 0.54 0.51 0.47 0.50 0.55 0.57 0.55 0.57 0.62 0.65 0.74 0.80 0.82 0.87 0.93 0.93 0.86 0.78 0.74 0.70 0.67 0.71 0.82 0.83 0.80 0.84 0.84 0.82
0.53 0.54 0.57 0.53 0.37 0.35 0.46 0.44 0.22 0.17 0.19 0.19 0.23 0.30 0.31 0.33 0.38 0.38 0.33 0.30 0.32 0.36 0.39 0.45 0.49 0.54 0.57 0.59 0.60 0.63 0.68 0.74 0.70 0.63 0.66 0.70 0.68 0.73 0.77 0.76 0.77 0.75 0.79 0.80
0.61 0.62 0.65 0.45 0.22 0.19 0.35 0.59 0.28 0.15 0.13 0.13 0.19 0.31 0.28 0.22 0.23 0.23 0.22 0.21 0.19 0.21 0.23 0.27 0.32 0.44 0.50 0.48 0.41 0.40 0.43 0.48 0.53 0.51 0.55 0.62 0.71 0.78 0.75 0.71 0.77 0.76 0.73 0.70
0.68 0.80 0.83 0.56 0.28 0.24 0.51 0.62 0.29 0.16 0.12 0.13 0.17 0.20 0.19 0.17 0.18 0.16 0.17 0.19 0.20 0.20 0.21 0.24 0.29 0.33 0.37 0.42 0.37 0.35 0.37 0.39 0.41 0.42 0.47 0.57 0.63 0.60 0.59 0.62 0.69 0.71 0.72 0.67
0.86 1.07 1.16 0.72 0.50 0.50 0.47 0.30 0.20 0.15 0.14 0.16 0.18 0.17 0.16 0.16 0.16 0.13 0.13 0.16 0.17 0.19 0.21 0.26 0.27 0.27 0.28 0.30 0.30 0.31 0.33 0.36 0.36 0.33 0.34 0.39 0.45 0.49 0.50 0.51 0.55 0.55 0.57 0.56
0.94 0.95 0.81 0.59 0.50 0.41 0.33 0.27 0.18 0.17 0.18 0.18 0.18 0.16 0.15 0.14 0.13 0.11 0.11 0.13 0.16 0.21 0.26 0.30 0.30 0.27 0.26 0.26 0.28 0.32 0.33 0.34 0.34 0.32 0.33 0.35 0.39 0.43 0.46 0.50 0.53 0.51 0.48 0.47
0.47 0.47 0.41 0.34 0.30 0.27 0.23 0.23 0.18 0.16 0.18 0.21 0.20 0.18 0.17 0.15 0.14 0.13 0.12 0.13 0.15 0.21 0.26 0.32 0.31 0.31 0.30 0.28 0.27 0.28 0.29 0.31 0.32 0.33 0.35 0.35 0.39 0.43 0.49 0.49 0.45 0.43 0.45 0.47
0.28 0.25 0.25 0.23 0.22 0.22 0.21 0.18 0.15 0.14 0.17 0.21 0.21 0.18 0.16 0.17 0.18 0.17 0.15 0.14 0.16 0.19 0.25 0.30 0.34 0.33 0.33 0.31 0.28 0.27 0.28 0.28 0.28 0.31 0.35 0.36 0.34 0.35 0.41 0.43 0.41 0.42 0.44 0.49
0.23 0.15 0.18 0.20 0.18 0.17 0.19 0.16 0.15 0.16 0.20 0.21 0.18 0.16 0.16 0.16 0.20 0.22 0.19 0.17 0.19 0.20 0.24 0.26 0.30 0.35 0.37 0.38 0.35 0.32 0.30 0.29 0.29 0.31 0.35 0.35 0.34 0.34 0.37 0.37 0.40 0.40 0.37 0.38
0.14 0.10 0.11 0.14 0.14 0.12 0.13 0.12 0.14 0.16 0.18 0.19 0.17 0.17 0.15 0.14 0.20 0.23 0.23 0.24 0.26 0.26 0.26 0.24 0.25 0.29 0.33 0.40 0.40 0.41 0.38 0.35 0.33 0.33 0.32 0.33 0.35 0.37 0.38 0.35 0.31 0.30 0.30 0.30
0.09 0.10 0.13 0.15 0.14 0.11 0.11 0.11 0.15 0.16 0.16 0.16 0.17 0.16 0.14 0.15 0.18 0.19 0.21 0.26 0.27 0.27 0.27 0.28 0.28 0.29 0.35 0.41 0.44 0.49 0.52 0.51 0.44 0.39 0.37 0.35 0.36 0.40 0.45 0.47 0.40 0.31 0.29 0.30
0.10 0.12 0.16 0.17 0.15 0.13 0.11 0.12 0.14 0.14 0.14 0.15 0.15 0.16 0.17 0.21 0.22 0.22 0.21 0.21 0.21 0.21 0.21 0.24 0.27 0.28 0.34 0.35 0.38 0.43 0.50 0.53 0.52 0.51 0.47 0.44 0.44 0.49 0.51 0.46 0.39 0.36 0.33 0.31
0.15 0.12 0.13 0.13 0.14 0.13 0.11 0.12 0.13 0.12 0.13 0.14 0.14 0.19 0.23 0.26 0.26 0.28 0.24 0.19 0.17 0.17 0.17 0.22 0.25 0.25 0.28 0.28 0.29 0.34 0.35 0.42 0.49 0.54 0.54 0.51 0.52 0.53 0.52 0.49 0.40 0.36 0.34 0.33
0.15 0.17 0.17 0.15 0.15 0.15 0.15 0.15 0.14 0.12 0.12 0.11 0.15 0.22 0.25 0.25 0.24 0.27 0.28 0.23 0.20 0.19 0.18 0.20 0.23 0.24 0.24 0.23 0.25 0.27 0.28 0.31 0.36 0.42 0.48 0.48 0.48 0.50 0.52 0.52 0.46 0.41 0.38 0.37
0.13 0.16 0.18 0.17 0.16 0.17 0.17 0.18 0.18 0.15 0.13 0.11 0.14 0.22 0.28 0.29 0.29 0.30 0.32 0.28 0.23 0.20 0.19 0.21 0.21 0.21 0.22 0.24 0.25 0.27 0.27 0.28 0.30 0.33 0.38 0.42 0.44 0.44 0.49 0.52 0.51 0.47 0.46 0.45
0.12 0.14 0.15 0.15 0.13 0.13 0.16 0.17 0.19 0.20 0.20 0.16 0.14 0.19 0.27 0.34 0.36 0.34 0.32 0.31 0.30 0.30 0.30 0.28 0.28 0.24 0.23 0.26 0.28 0.25 0.23 0.24 0.26 0.30 0.34 0.37 0.38 0.39 0.42 0.44 0.46 0.45 0.44 0.44
0.17 0.19 0.21 0.18 0.15 0.13 0.14 0.16 0.17 0.19 0.22 0.22 0.18 0.19 0.27 0.34 0.35 0.31 0.28 0.28 0.32 0.38 0.38 0.38 0.35 0.31 0.29 0.30 0.32 0.26 0.26 0.27 0.31 0.34 0.33 0.31 0.32 0.35 0.37 0.39 0.42 0.44 0.46 0.47
0.24 0.29 0.28 0.24 0.18 0.14 0.13 0.13 0.15 0.18 0.20 0.20 0.21 0.24 0.32 0.39 0.38 0.34 0.29 0.29 0.31 0.34 0.36 0.38 0.37 0.37 0.36 0.38 0.40 0.34 0.31 0.30 0.32 0.35 0.36 0.35 0.33 0.33 0.35 0.38 0.42 0.46 0.48 0.49
0.28 0.28 0.25 0.25 0.22 0.17 0.15 0.15 0.15 0.16 0.17 0.19 0.20 0.24 0.31 0.40 0.42 0.37 0.31 0.33 0.37 0.39 0.34 0.33 0.34 0.41 0.47 0.46 0.38 0.36 0.35 0.35 0.35 0.34 0.35 0.37 0.39 0.40 0.41 0.44 0.46 0.48 0.50 0.50
0.26 0.26 0.29 0.30 0.28 0.24 0.21 0.20 0.21 0.21 0.21 0.22 0.24 0.26 0.29 0.34 0.42 0.46 0.38 0.33 0.35 0.39 0.36 0.35 0.39 0.43 0.48 0.43 0.41 0.41 0.39 0.36 0.35 0.35 0.38 0.40 0.42 0.45 0.48 0.50 0.50 0.51 0.55 0.59
0.23 0.25 0.30 0.32 0.32 0.29 0.28 0.28 0.30 0.30 0.29 0.29 0.31 0.32 0.34 0.37 0.42 0.49 0.43 0.39 0.41 0.42 0.37 0.39 0.44 0.49 0.50 0.38 0.39 0.44 0.46 0.44 0.43 0.43 0.45 0.47 0.47 0.49 0.52 0.55 0.56 0.58 0.63 0.68
0.21 0.21 0.25 0.31 0.32 0.31 0.29 0.29 0.30 0.33 0.33 0.32 0.33 0.36 0.37 0.41 0.47 0.51 0.48 0.41 0.44 0.46 0.43 0.46 0.49 0.51 0.48 0.45 0.44 0.46 0.50 0.52 0.56 0.56 0.53 0.54 0.56 0.59 0.61 0.64 0.67 0.70 0.70 0.70
0.20 0.19 0.21 0.27 0.29 0.29 0.27 0.26 0.28 0.32 0.34 0.33 0.32 0.36 0.38 0.41 0.46 0.54 0.57 0.52 0.49 0.51 0.48 0.45 0.46 0.49 0.49 0.54 0.57 0.57 0.58 0.58 0.57 0.54 0.52 0.54 0.55 0.56 0.57 0.60 0.64 0.69 0.73 0.73
0.20 0.19 0.20 0.23 0.25 0.24 0.24 0.26 0.29 0.32 0.35 0.37 0.37 0.37 0.37 0.39 0.44 0.50 0.57 0.57 0.53 0.51 0.52 0.51 0.50 0.49 0.50 0.54 0.60 0.63 0.64 0.62 0.61 0.60 0.58 0.60 0.60 0.61 0.60 0.60 0.64 0.69 0.75 0.78